Location: Unspecified
(0.0000°N, 0.0000°E)
Time: 22:05:19
(UTC+00:00)

Transit 2A Rocket - Visible Passes

Search period start: 25 October 2014 00:00
Search period end: 04 November 2014 00:00
Orbit: 591 x 917 km, 66.7° (Epoch: 24 October)

Date Brightness Start Highest point End Pass type
(mag) Time Alt. Az. Time Alt. Az. Time Alt. Az.
25 Oct 6.1 03:20:04 48° ESE 03:20:04 48° ESE 03:24:40 10° SSE visible
25 Oct 7.1 05:00:06 11° W 05:01:12 11° WSW 05:03:02 10° SW visible
26 Oct 7.7 02:40:29 18° ESE 02:40:29 18° ESE 02:42:17 10° SE visible
26 Oct 6.6 04:20:31 22° SW 04:20:31 22° SW 04:24:08 10° SSW visible
27 Oct 6.8 03:40:47 25° SSW 03:40:47 25° SSW 03:43:29 10° S visible
28 Oct 7.6 03:00:56 16° SSE 03:00:56 16° SSE 03:02:07 10° SSE visible
